Weather History for False Pass, AK

Change the Weather History Date:

Sunday, April 14, 2013

  Actual Average (PACD) Record (PACD)
Temperature  
Mean Temperature 28 °F 34 °F  
Max Temperature 35 °F 39 °F 51 °F (2003)
Min Temperature 19 °F 29 °F 15 °F (1956)
Degree Days  
Heating Degree Days 37 31  
Month to date heating degree days 457  
Since 1 July heating degree days 7760  
Cooling Degree Days 0    
Month to date cooling degree days  
Year to date cooling degree days  
Moisture  
Dew Point 23 °F    
Average Humidity 70    
Maximum Humidity 81    
Minimum Humidity 54    
Precipitation  
Precipitation 0.00 in 0.09 in 0.82 in (1995)
Month to date precipitation 1.15  
Year to date precipitation 9.99  
Snow  
Snow 0.00 in 0.20 in 1.40 in (1970)
Month to date snowfall 4.0  
Since 1 July snowfall 69.2  
Snow Depth -    
Sea Level Pressure  
Sea Level Pressure 30.74 in    
Wind  
Wind Speed 9 mph (ESE)    
Max Wind Speed 16 mph    
Max Gust Speed 24 mph    
Visibility 9 miles    
Events Snow    
T = Trace of Precipitation, MM = Missing Value Source: NWS Daily Summary

Daily Weather History Graph

Daily Weather History Graph

Search for Another Location

Airport:

Trip Planner

Search our weather history database for the weather conditions in past years. The results will help you decide how hot, cold, wet, or windy it might be!

Date:

Astronomy

Apr. 14, 2013 Rise Set
Actual Time 6:52 AM HADT 8:56 PM HADT
Civil Twilight 6:13 AM HADT 9:35 PM HADT
Nautical Twilight 5:24 AM HADT 10:24 PM HADT
Astronomical Twilight 4:27 AM HADT 11:23 PM HADT
Moon 9:08 AM HADT (4/14) 12:59 AM HADT (4/14)
Length of Visible Light 15h 22m
Length of Day
14h 04m
Waxing Crescent, 18% of the Moon is Illuminated
Apr 14
Waxing Crescent
Apr 18
First Quarter
Apr 25
Full
May 2
Last Quarter
May 9
New

Hourly Weather History & Observations

Time (HADT) Temp. Windchill Dew Point Humidity Pressure Visibility Wind Dir Wind Speed Gust Speed Precip Events Conditions
12:01 AM 27.0 °F 14.7 °F 19.9 °F 75% 30.91 in 10.0 mi NNW 16.1 mph - N/A   Clear
1:01 AM 27.0 °F 16.1 °F 21.0 °F 78% 30.91 in 10.0 mi NW 12.7 mph - N/A   Clear
2:01 AM 27.0 °F 17.3 °F 21.9 °F 81% 30.90 in 10.0 mi NNW 10.4 mph - N/A   Clear
3:01 AM 27.0 °F 20.5 °F 21.0 °F 78% 30.90 in 10.0 mi Variable 5.8 mph - N/A   Clear
4:01 AM 24.1 °F 18.2 °F 18.0 °F 77% 30.87 in 10.0 mi Variable 4.6 mph - N/A   Clear
5:01 AM 21.0 °F 13.4 °F 15.1 °F 78% 30.87 in 10.0 mi SSW 5.8 mph - N/A   Clear
6:01 AM 19.9 °F 11.1 °F 15.1 °F 81% 30.85 in 10.0 mi SSW 6.9 mph - N/A   Clear
7:01 AM 21.0 °F 14.6 °F 15.1 °F 78% 30.83 in 10.0 mi SW 4.6 mph - N/A   Clear
8:01 AM 21.9 °F 14.5 °F 15.1 °F 75% 30.83 in 10.0 mi SW 5.8 mph - N/A   Clear
9:01 AM 30.0 °F 26.5 °F 15.1 °F 54% 30.83 in 10.0 mi Variable 3.5 mph - N/A   Clear
10:01 AM 32.0 °F 26.4 °F 19.9 °F 61% 30.81 in 10.0 mi South 5.8 mph - N/A   Clear
11:01 AM 34.0 °F 27.2 °F 24.1 °F 67% 30.79 in 10.0 mi SSE 8.1 mph - N/A   Clear
12:01 PM 35.1 °F 29.3 °F 26.1 °F 70% 30.79 in 10.0 mi ESE 6.9 mph - N/A   Clear
1:01 PM 37.0 °F 31.0 °F 27.0 °F 67% 30.76 in 10.0 mi East 8.1 mph - N/A   Clear
2:01 PM 36.0 °F 29.6 °F 26.1 °F 67% 30.76 in 10.0 mi ESE 8.1 mph - N/A   Clear
3:01 PM 36.0 °F 29.6 °F 25.0 °F 64% 30.74 in 10.0 mi East 8.1 mph - N/A   Clear
4:01 PM 37.0 °F 30.4 °F 26.1 °F 65% 30.73 in 10.0 mi SE 9.2 mph - N/A   Clear
5:01 PM 36.0 °F 26.3 °F 27.0 °F 70% 30.71 in 10.0 mi East 16.1 mph 20.7 mph N/A   Partly Cloudy
6:01 PM 36.0 °F 29.0 °F 26.1 °F 67% 30.67 in 10.0 mi SE 9.2 mph 16.1 mph N/A   Overcast
7:01 PM 36.0 °F - 24.1 °F 62% 30.64 in 10.0 mi Calm Calm - N/A   Overcast
8:01 PM 37.0 °F 30.4 °F 25.0 °F 62% 30.63 in 10.0 mi East 9.2 mph - N/A   Overcast
9:01 PM 37.0 °F 30.4 °F 23.0 °F 57% 30.62 in 10.0 mi NE 9.2 mph 18.4 mph N/A   Overcast
10:01 PM 37.0 °F 29.3 °F 25.0 °F 62% 30.62 in 10.0 mi NE 11.5 mph 20.7 mph N/A   Overcast
11:01 PM 36.0 °F 26.3 °F 28.0 °F 73% 30.62 in 10.0 mi ENE 16.1 mph 24.2 mph N/A   Overcast
11:46 PM 35.6 °F 29.9 °F 30.2 °F 81% 30.31 in 3.0 mi ENE 6.9 mph 20.7 mph 0.00 in Snow Light Snow
11:54 PM 35.6 °F - 30.2 °F 81% 30.30 in 2.5 mi Calm Calm - 0.00 in Snow Light Snow